This demonstration page uses our WeatherBlox Daily Observations layout. Learn more.

Left ArrowRight Arrow

Hourly Observations for May 24, 2018

Temp ( °F °C ) Dew Point ( °F °C ) Humidity (%) Winds ( mph kmh ) Pressure ( in mb ) Visibility ( mi km ) Precip ( " mm )
12:53 am 00:53 Clear 62 16.7 60 15.6 93 93 Calm 30.19 1023 10 16 0.00 0.00
1:53 am 01:53 Clear 60 15.6 59 15 96 96 Calm 30.19 1022 10 16 0.00 0.00
2:53 am 02:53 Clear 59 15 58 14.4 96 96 Calm 30.18 1022 10 16 0.00 0.00
3:53 am 03:53 Clear 58 14.4 57 13.9 97 97 Calm 30.17 1022 10 16 0.00 0.00
4:53 am 04:53 Clear 56 13.3 56 13.3 100 100 Calm 30.18 1022 10 16 0.00 0.00
5:53 am 05:53 Clear 56 13.3 55 12.8 97 97 Calm 30.18 1022 10 16 0.00 0.00
6:53 am 06:53 Sunny 57 13.9 57 13.9 100 100 Calm 30.20 1023 7 11 0.00 0.00
7:53 am 07:53 Sunny 62 16.7 59 15 90 90 NW 3 6 30.22 1023 10 16 0.00 0.00
8:53 am 08:53 Sunny 68 20 59 15 73 73 Calm 30.22 1024 10 16 0.00 0.00
9:53 am 09:53 Sunny 72 22.2 59 15 64 64 Calm 30.24 1024 10 16 0.00 0.00
10:53 am 10:53 Sunny 75 23.9 57 13.9 54 54 VRB 7 11 30.22 1023 10 16 0.00 0.00
11:53 am 11:53 Sunny 77 25 57 13.9 50 50 E 9 15 30.20 1023 10 16 0.00 0.00
12:53 pm 12:53 Sunny 79 26.1 57 13.9 47 47 E 9 15 30.19 1022 10 16 0.00 0.00
1:53 pm 13:53 Sunny 80 26.7 57 13.9 45 45 ENE 9 15 30.17 1022 10 16 0.00 0.00
2:53 pm 14:53 Sunny 81 27.2 55 12.8 41 41 E 6 9 30.14 1021 10 16 0.00 0.00
3:53 pm 15:53 Sunny 82 27.8 56 13.3 41 41 VRB 5 7 30.13 1020 10 16 0.00 0.00
4:53 pm 16:53 Sunny 83 28.3 57 13.9 41 41 ESE 5 7 30.11 1020 10 16 0.00 0.00
5:53 pm 17:53 Sunny 83 28.3 56 13.3 40 40 ENE 8 13 30.09 1019 10 16 0.00 0.00
6:53 pm 18:53 Sunny 83 28.3 57 13.9 41 41 NE 6 9 30.08 1019 10 16 0.00 0.00
7:53 pm 19:53 Sunny 80 26.7 57 13.9 45 45 E 3 6 30.07 1018 10 16 0.00 0.00
8:53 pm 20:53 Clear 69 20.6 62 16.7 78 78 Calm 30.07 1018 10 16 0.00 0.00
9:53 pm 21:53 Clear 66 18.9 61 16.1 84 84 Calm 30.06 1018 10 16 0.00 0.00
10:53 pm 22:53 Clear 64 17.8 60 15.6 87 87 Calm 30.07 1018 10 16 0.00 0.00
11:53 pm 23:53 Clear 61 16.1 60 15.6 97 97 Calm 30.07 1018 10 16 0.00 0.00

Powered by AerisWeather